Weather History for Fort Stockton, TX

Change the Weather History Date:

Saturday, January 21, 2012

  Actual Average Record
Temperature  
Mean Temperature 55 °F -  
Max Temperature 73 °F 61 °F 80 °F (2000)
Min Temperature 37 °F 37 °F 26 °F (2011)
Degree Days  
Heating Degree Days 10    
Growing Degree Days 5 (Base 50)    
Moisture  
Dew Point 18 °F    
Average Humidity 25    
Maximum Humidity 49    
Minimum Humidity 10    
Precipitation  
Precipitation 0.00 in - - ()
Sea Level Pressure  
Sea Level Pressure 29.88 in    
Wind  
Wind Speed 4 mph (South)    
Max Wind Speed 15 mph    
Max Gust Speed 16 mph    
Visibility 10 miles    
Events      
Averages and records for this station are not official NWS values.
T = Trace of Precipitation, MM = Missing Value Source: NWS Daily Summary

Daily Weather History Graph

Daily Weather History Graph

Search for Another Location

Airport:

Trip Planner

Search our weather history database for the weather conditions in past years. The results will help you decide how hot, cold, wet, or windy it might be!

Date:

Astronomy

Jan. 21, 2012 Rise Set
Actual Time 7:48 AM CST 6:17 PM CST
Civil Twilight 7:22 AM CST 6:43 PM CST
Nautical Twilight 6:53 AM CST 7:12 PM CST
Astronomical Twilight 6:24 AM CST 7:41 PM CST
Moon 6:18 AM CST (1/21) 4:57 PM CST (1/21)
Length of Visible Light 11h 20m
Length of Day
10h 28m
Waning Crescent, 3% of the Moon is Illuminated
Jan 21
Waning Crescent
Jan 23
New
Jan 30
First Quarter
Feb 7
Full
Feb 14
Last Quarter

Hourly Weather History & Observations

Time (CST) Temp. Windchill Dew Point Humidity Pressure Visibility Wind Dir Wind Speed Gust Speed Precip Events Conditions
12:53 AM 54.0 °F - 14.0 °F 21% 29.92 in 10.0 mi WSW 6.9 mph - N/A   Clear
2:53 AM 46.9 °F - 17.1 °F 30% 29.92 in 10.0 mi West 4.6 mph - N/A   Clear
3:53 AM 45.0 °F - 17.1 °F 33% 29.93 in 10.0 mi Calm Calm - N/A   Clear
4:53 AM 42.1 °F 40.2 °F 19.0 °F 40% 29.94 in 10.0 mi East 3.5 mph - N/A   Clear
5:53 AM 39.9 °F 37.8 °F 21.0 °F 47% 29.96 in 10.0 mi South 3.5 mph - N/A   Clear
7:53 AM 37.9 °F - 19.9 °F 48% 30.01 in 10.0 mi Calm Calm - N/A   Clear
8:53 AM 41.0 °F - 23.0 °F 49% 30.01 in 10.0 mi Calm Calm - N/A   Clear
9:53 AM 48.9 °F - 21.0 °F 33% 30.02 in 10.0 mi Calm Calm - N/A   Clear
10:53 AM 55.9 °F - 21.0 °F 26% 30.01 in 10.0 mi Calm Calm - N/A   Clear
11:53 AM 61.0 °F - 12.9 °F 15% 29.97 in 10.0 mi Variable 3.5 mph - N/A   Clear
12:53 PM 66.0 °F - 14.0 °F 13% 29.91 in 10.0 mi Calm Calm - N/A   Clear
1:53 PM 69.1 °F - 12.9 °F 11% 29.86 in 10.0 mi Calm Calm - N/A   Clear
2:53 PM 70.0 °F - 12.0 °F 11% 29.82 in 10.0 mi Calm Calm - N/A   Clear
3:53 PM 73.9 °F - 12.9 °F 10% 29.79 in 10.0 mi East 8.1 mph - N/A   Clear
4:53 PM 71.1 °F - 23.0 °F 16% 29.78 in 10.0 mi NE 10.4 mph 16.1 mph N/A   Clear
5:53 PM 66.9 °F - 27.0 °F 22% 29.78 in 10.0 mi Calm Calm - N/A   Clear
6:53 PM 57.9 °F - 28.9 °F 33% 29.78 in 10.0 mi Calm Calm - N/A   Clear
7:53 PM 59.0 °F - 24.1 °F 26% 29.77 in 10.0 mi SSW 9.2 mph - N/A   Clear
8:53 PM 59.0 °F - 10.9 °F 15% 29.77 in 10.0 mi SSW 13.8 mph - N/A   Clear
9:53 PM 60.1 °F - 10.0 °F 14% 29.73 in 10.0 mi SSW 15.0 mph - N/A   Clear
10:53 PM 55.9 °F - 10.9 °F 17% 29.72 in 10.0 mi SSW 15.0 mph - N/A   Clear